Regional Weather Roundup
Issued by NWS

Home | Current Version | Previous Version | Graphics & Text | Print | Product List | Glossary On
Versions: 1 2 3 4 5 6 7 8 9 10 11 12 13 14 15 16 17 18 19 20 21 22 23 24 25 26 27 28 29 30 31 32 33 34 35 36 37 38 39 40 41 42 43 44 45 46 47 48 49 50
000
ASUS43 KBIS 050802
RWRND

NORTH DAKOTA REGIONAL WEATHER ROUNDUP
NATIONAL WEATHER SERVICE BISMARCK ND
300 AM CDT SUN JUL 05 2015

NOTE: "FAIR" INDICATES FEW OR NO CLOUDS BELOW 12,000 FEET WITH NO
SIGNIFICANT WEATHER AND/OR OBSTRUCTIONS TO VISIBILITY.


NDZ001>003-009>011-017-050900-
NORTHWEST NORTH DAKOTA

CITY           SKY/WX    TMP DP  RH WIND       PRES   REMARKS
WILLISTON      CLEAR     66  62  87 N9        29.78S
MINOT          MOCLDY    61  59  93 NW7       29.76F FOG
$$

NDZ018>021-031>035-040>046-050900-
SOUTHWEST NORTH DAKOTA

CITY           SKY/WX    TMP DP  RH WIND       PRES   REMARKS
BISMARCK       CLEAR     69  67  93 E8        29.72F
DICKINSON      CLEAR     64  58  80 N7        29.74F
GARRISON         N/A     66  61  84 NE8       29.74F
HETTINGER ARPT PTCLDY    60  58  92 CALM      29.75F FOG
$$

NDZ004>008-012>016-024-026-027-054-050900-
NORTHEAST NORTH DAKOTA

CITY           SKY/WX    TMP DP  RH WIND       PRES   REMARKS
GRAND FORKS    CLOUDY    67  65  93 E16G22    29.76R
GRND FRKS AFB  CLOUDY    68  66  94 E13       29.76R
DEVILS LAKE    MOCLDY    66  61  82 CALM      29.74S
$$

NDZ022-023-025-028>030-036>039-047>053-050900-
SOUTHEAST NORTH DAKOTA

CITY           SKY/WX    TMP DP  RH WIND       PRES   REMARKS
FARGO          CLOUDY    73  65  75 SE13      29.77S
JAMESTOWN      PTCLDY    71  66  84 S12       29.74F
$$




USA.gov is the U.S. government's official web portal to all federal, state and local government web resources and services.